#timestamp,LO_Frequency,Hit,StdDev 
1706367615.8,286046998.6,N
1706367635.6,286046999.6,N
1706367655.5,286046999.1,N
1706367675.3,286046996.5,N
1706367695.1,286046999.1,N
1706367715.9,286046996.5,N
1706367735.7,286046996.5,N
1706367755.5,286046997.8,N
1706367775.4,286046996.9,N
1706367795.2,286046997.1,N
1706367815.1,286046999.4,N
1706367816.0,286046999.4,N
1706367835.8,286046998.9,N
1706367855.6,286046999.5,N
1706367875.5,286046996.9,N
1706367895.3,286046996.6,Y
1706367915.1,286047001.0,P
1706367935.9,286047000.4,N
1706367955.7,286047000.4,N
1706367975.6,286047000.4,N
1706367995.4,286047000.7,N
1706368015.2,286046998.2,N
1706368035.1,286047001.0,N
1706368036.0,286047001.0,N
1706368055.8,286047000.8,N
1706368075.6,286046998.6,N
1706368095.5,286046998.4,N
1706368115.3,286046998.8,N
1706368135.2,286046999.4,N
1706368155.9,286046999.4,N
1706368175.7,286046996.9,N
1706368195.6,286046996.9,N
1706368215.4,286046999.0,N
1706368235.2,286046996.6,N
1706368255.1,286046996.7,N
1706368256.0,286046996.7,N
1706368275.8,286046996.7,N
1706368295.7,286046999.1,N
1706368315.5,286046999.3,N
1706368335.3,286046999.2,N
1706368355.2,286046999.5,N
1706368375.0,286046996.5,N
1706368375.9,286046996.5,N
1706368395.8,286046996.9,N
1706368415.6,286046999.2,N
1706368435.4,286046999.5,N
1706368455.3,286046998.7,N
1706368475.1,286046999.3,N
1706368476.0,286046999.3,N
1706368495.8,286046996.5,N
1706368515.7,286046999.0,N
1706368535.5,286046998.1,N
1706368555.3,286047001.2,N
1706368575.2,286047000.8,N
1706368595.0,286047001.1,N
1706368595.9,286047001.1,N
1706368615.8,286047001.1,N
1706368635.6,286046998.5,N
1706368655.4,286046998.2,N
1706368675.3,286047001.2,N
1706368695.1,286046998.7,N
1706368715.8,286046996.5,N
1706368735.7,286046996.6,N
1706368755.5,286046998.7,N
1706368775.4,286046998.9,N
1706368795.2,286046998.1,N
1706368815.0,286046998.9,N
1706368815.9,286046998.9,N
1706368835.8,286046998.3,N
1706368855.6,286046999.3,N
1706368875.4,286046996.9,N
1706368895.3,286046998.8,N
1706368915.1,286046998.9,N
1706368935.9,286046999.1,N
1706368955.7,286046999.4,N
1706368975.5,286046999.2,N
1706368995.4,286046999.5,N
1706369015.2,286046999.4,N
1706369035.1,286046996.5,N
1706369036.0,286046996.5,N
1706369055.8,286046996.5,N
1706369075.6,286046999.5,N
1706369095.5,286046999.4,N
1706369115.3,286046999.0,N
1706369135.1,286046998.7,N
1706369155.9,286046999.0,N
1706369175.7,286046999.5,N
1706369195.6,286046999.1,N
1706369215.4,286046999.6,N
1706369235.2,286046996.6,Y
1706369255.1,286046998.4,P
1706369256.0,286046998.4,P
1706369275.8,286046998.6,P
1706369295.7,286047000.8,Y
1706369315.5,286047001.7,P
1706369335.3,286047003.4,N
1706369355.2,286047003.8,N
1706369375.0,286047004.3,N
1706369375.9,286047004.3,N
1706369395.7,286047004.3,N
1706369415.6,286047001.9,N
1706369435.4,286047001.6,N
1706369455.3,286047002.2,N
1706369475.1,286047002.5,N
1706369476.0,286047002.5,N
1706369495.8,286046999.8,N
1706369515.7,286047002.1,N
1706369535.5,286047001.4,N
1706369555.3,286047002.4,N
1706369575.2,286047001.5,N
1706369595.0,286047002.4,N
1706369595.9,286047002.4,N
1706369615.8,286047001.7,N
1706369635.6,286047004.0,N
1706369655.4,286047001.3,N
1706369675.3,286047004.1,N
1706369695.1,286047001.4,N
1706369715.8,286047004.1,N
1706369735.7,286047004.0,N
1706369755.5,286047003.7,N
1706369775.4,286047003.1,N
1706369795.2,286047003.3,N
1706369815.0,286047005.2,Y
1706369815.9,286047005.2,P
1706369835.8,286047004.4,P
1706369855.6,286047004.4,P
1706369875.5,286047004.1,Y
1706369895.3,286047000.4,P
1706369915.1,286047001.1,N
1706369935.9,286047000.9,N
1706369955.7,286047000.6,N
1706369975.5,286046999.9,N
1706369995.4,286047000.5,N
1706370015.2,286047000.9,N
1706370035.1,286047001.1,N
1706370036.0,286047001.1,N
1706370055.8,286047000.5,N
1706370075.6,286047000.6,N
1706370095.5,286047001.1,N
1706370115.3,286047000.6,N
1706370135.1,286047000.2,N
1706370155.9,286047002.7,N
1706370175.7,286047002.0,N
1706370195.6,286047001.9,N
1706370215.4,286047001.9,N
1706370235.2,286047002.0,N
1706370255.1,286047002.2,N
1706370256.0,286047002.2,N
1706370275.8,286047004.2,Y
1706370295.6,286047001.8,P
1706370315.5,286047001.5,P
1706370335.3,286047004.4,P
1706370355.2,286047004.2,Y
1706370375.9,286047002.7,P
1706370395.7,286047002.5,P
1706370415.6,286047002.1,P
1706370435.4,286047002.3,Y
1706370455.3,286047000.3,P
1706370475.1,286046999.9,N
1706370476.0,286046999.9,N
1706370495.8,286047002.3,N
1706370515.7,286047002.2,N
1706370535.5,286047002.0,N
1706370555.3,286047002.0,N
1706370575.2,286047001.5,N
1706370595.0,286047004.1,Y
1706370595.9,286047004.1,P
1706370615.8,286047002.5,N
1706370635.6,286047001.5,N
1706370655.4,286047001.9,N
1706370675.3,286047001.7,N
1706370695.1,286047002.5,N
1706370715.9,286047001.8,N
1706370735.7,286047001.9,N
1706370755.5,286047003.5,Y
1706370775.4,286047001.4,P
1706370795.2,286047004.0,P
1706370815.0,286047004.2,P
1706370816.0,286047004.2,Y
1706370835.8,286047000.3,P
1706370855.6,286047000.1,N
1706370875.5,286047002.2,N
1706370895.3,286047002.0,N
1706370915.1,286047002.0,N
1706370935.9,286047001.6,N
1706370955.7,286047002.3,N
1706370975.6,286047001.5,N
1706370995.4,286047003.9,Y
1706371015.2,286047002.1,P
1706371035.1,286047002.3,P
1706371036.0,286047002.3,P
1706371055.8,286047001.9,Y
1706371075.7,286047000.6,P
1706371095.5,286046999.7,N
1706371115.3,286047002.2,N
1706371135.2,286047000.2,N
1706371155.0,286047002.4,N
1706371155.9,286047002.4,N
1706371175.8,286047002.5,N
1706371195.6,286047001.8,N
